College Station, TX

12:39 PM CDT on May 29, 2017 (GMT -0500)
Easterwood

Weather History for KCLL - December, 2014

Change the Weather History Date:

Tuesday, December 30, 2014

  Actual Average Record
Temperature  
Mean Temperature 43 °F 51 °F  
Max Temperature 48 °F 61 °F 81 °F (1951)
Min Temperature 37 °F 41 °F 12 °F (1983)
Degree Days  
Heating Degree Days 22 15  
Month to date heating degree days 290 397  
Since 1 July heating degree days 585 622  
Cooling Degree Days 0 0  
Month to date cooling degree days 10 13  
Year to date cooling degree days 2943 3086  
Moisture  
Dew Point 39 °F    
Average Humidity 82    
Maximum Humidity 93    
Minimum Humidity 71    
Precipitation  
Precipitation 0.00 in 0.09 in 2.94 in (1952)
Month to date precipitation 2.57 3.13  
Year to date precipitation 39.61 39.96  
Sea Level Pressure  
Sea Level Pressure 30.38 in    
Wind  
Wind Speed 10 mph (NE)    
Max Wind Speed 18 mph    
Max Gust Speed 24 mph    
Visibility 10 miles    
Events      
T = Trace of Precipitation, MM = Missing Value Source: NWS Daily Summary

Daily Weather History Graph

Daily Weather History Graph

Search for Another Location

Airport or City:

Trip Planner

Search our weather history database for the weather conditions in past years. The results will help you decide how hot, cold, wet, or windy it might be!

Date:

Astronomy

Dec. 30, 2014 Rise Set
Actual Time 7:22 AM CST 5:34 PM CST
Civil Twilight 6:55 AM CST 6:00 PM CST
Nautical Twilight 6:25 AM CST 6:30 PM CST
Astronomical Twilight 5:56 AM CST 6:59 PM CST
Moon 1:34 PM CST (12/30) 2:00 AM CST (12/30)
Length of Visible Light 11h 04m
Length of Day
10h 11m
Waxing Gibbous, 71% of the Moon is Illuminated
Dec 30
Waxing Gibbous
Jan 4
Full
Jan 13
Last Quarter
Jan 20
New
Jan 26
First Quarter

Hourly Weather History & Observations

Time (CST) Temp. Windchill Dew Point Humidity Pressure Visibility Wind Dir Wind Speed Gust Speed Precip Events Conditions
12:53 AM 44.1 °F 40.1 °F 41.0 °F 89% 30.24 in 9.0 mi SE 6.9 mph - N/A   Overcast
1:53 AM 44.1 °F 41.5 °F 41.0 °F 89% 30.26 in 10.0 mi East 4.6 mph - N/A   Overcast
2:53 AM 44.1 °F 41.5 °F 41.0 °F 89% 30.27 in 10.0 mi East 4.6 mph - N/A   Overcast
3:53 AM 45.0 °F 41.8 °F 42.1 °F 90% 30.28 in 10.0 mi ENE 5.8 mph - N/A   Overcast
4:53 AM 45.0 °F 41.2 °F 42.1 °F 90% 30.28 in 10.0 mi ENE 6.9 mph - N/A   Overcast
5:53 AM 46.0 °F 43.1 °F 42.1 °F 86% 30.30 in 10.0 mi ENE 5.8 mph - N/A   Overcast
6:53 AM 46.0 °F 41.9 °F 43.0 °F 89% 30.32 in 10.0 mi East 8.1 mph - N/A   Overcast
7:53 AM 46.0 °F 41.0 °F 43.0 °F 89% 30.36 in 10.0 mi ENE 10.4 mph - N/A   Overcast
8:53 AM 46.0 °F 43.1 °F 44.1 °F 93% 30.40 in 8.0 mi ENE 5.8 mph - N/A   Overcast
9:53 AM 46.9 °F - 43.0 °F 86% 30.43 in 10.0 mi NE 8.1 mph - N/A   Overcast
10:26 AM 46.9 °F - 43.0 °F 86% 30.43 in 10.0 mi NNE 10.4 mph - N/A   Overcast
10:53 AM 46.9 °F - 42.1 °F 83% 30.43 in 10.0 mi ENE 10.4 mph - N/A   Overcast
11:53 AM 48.0 °F - 42.1 °F 80% 30.41 in 10.0 mi NE 12.7 mph - N/A   Overcast
12:53 PM 46.9 °F - 42.1 °F 83% 30.38 in 10.0 mi NNE 13.8 mph - N/A   Overcast
1:53 PM 46.0 °F 39.6 °F 41.0 °F 83% 30.37 in 10.0 mi NNE 15.0 mph - N/A   Overcast
2:49 PM 46.4 °F 40.4 °F 39.2 °F 76% 30.36 in 10.0 mi North 13.8 mph - N/A   Overcast
2:53 PM 46.9 °F - 39.9 °F 77% 30.36 in 10.0 mi North 13.8 mph - N/A   Overcast
3:53 PM 46.9 °F - 39.0 °F 74% 30.38 in 10.0 mi NNE 11.5 mph - N/A   Overcast
4:53 PM 46.0 °F 40.2 °F 37.9 °F 73% 30.39 in 10.0 mi NNE 12.7 mph - N/A   Overcast
5:53 PM 43.0 °F 36.0 °F 37.0 °F 80% 30.41 in 10.0 mi NE 13.8 mph - N/A   Overcast
6:53 PM 42.1 °F 34.9 °F 35.1 °F 76% 30.43 in 10.0 mi NE 13.8 mph - N/A   Overcast
7:53 PM 41.0 °F 33.9 °F 35.1 °F 79% 30.44 in 10.0 mi NE 12.7 mph - N/A   Overcast
8:53 PM 39.9 °F 31.1 °F 34.0 °F 79% 30.46 in 10.0 mi NE 17.3 mph 23.0 mph N/A   Overcast
9:24 PM 39.0 °F 31.0 °F 33.1 °F 79% 30.47 in 10.0 mi NE 13.8 mph - N/A   Scattered Clouds
9:53 PM 37.9 °F 30.9 °F 30.9 °F 76% 30.47 in 10.0 mi NE 10.4 mph - N/A   Partly Cloudy
10:53 PM 37.0 °F 28.1 °F 30.9 °F 79% 30.43 in 10.0 mi ENE 15.0 mph 19.6 mph N/A   Partly Cloudy
11:53 PM 37.9 °F 34.4 °F 30.9 °F 76% 30.46 in 10.0 mi NNE 4.6 mph - N/A   Overcast